Theta_e
312 314 314 315 314 315 314 314 313 312 311 309 307 307 306 305 304 302 301 299 298 297 296 295 294 294 295 294 293 292 292 291 287 287 288 286 285 282 283 283 282 283 282
311 312 313 313 313 312 313 313 314 312 311 309 307 306 306 305 304 302 300 299 298 297 296 295 295 296 295 295 294 292 292 290 286 285 286 284 285 284 284 281 283 283 281
308 309 311 312 312 311 312 312 313 311 310 309 307 306 305 305 303 303 302 300 299 298 297 296 296 296 295 295 294 293 291 290 285 285 285 283 280 278 280 282 281 280 283
306 308 309 310 312 311 311 312 311 311 309 308 307 306 305 305 303 303 302 301 300 299 298 298 297 296 296 294 293 291 288 287 285 285 284 283 280 281 280 280 280 279 278
302 305 307 309 311 311 309 310 311 310 309 307 306 305 304 303 303 302 301 300 299 298 297 297 298 296 293 295 294 290 288 287 287 285 283 281 278 280 280 280 280 280 279
299 301 303 304 308 310 308 308 308 308 308 306 305 304 302 302 299 298 300 300 299 297 296 296 295 290 292 293 293 292 291 288 286 285 282 282 279 280 280 281 280 279 277
297 298 299 300 303 306 307 307 307 306 306 304 304 303 302 302 297 297 296 300 298 297 296 294 292 293 291 292 292 291 290 291 290 286 284 283 280 281 282 281 280 279 278
296 296 296 297 298 299 304 305 305 305 303 302 302 302 301 301 297 297 294 299 298 296 295 293 292 289 291 290 289 288 287 288 288 286 286 284 283 283 283 281 280 279 280
295 295 295 296 295 296 300 302 303 302 301 300 300 300 299 298 295 295 295 294 291 291 291 291 290 289 290 291 288 287 285 285 289 289 288 288 288 287 284 282 279 276 273
294 295 295 294 295 295 297 298 300 300 296 296 295 298 295 295 294 294 296 292 289 287 287 287 287 289 290 291 288 286 285 284 285 285 285 286 286 285 286 281 281 278 274
292 290 290 292 292 294 292 288 292 293 289 290 290 292 292 292 293 294 293 291 288 287 286 286 287 289 290 290 289 287 286 285 286 284 282 282 282 281 280 280 280 279 274
289 289 288 288 290 289 289 287 287 289 289 289 288 287 288 289 291 293 292 292 291 288 287 287 287 289 290 290 287 289 288 286 283 282 280 280 279 278 277 278 278 278 278
287 287 287 286 286 287 287 287 288 288 288 287 287 287 286 287 290 291 291 291 290 288 287 287 288 289 289 288 288 288 285 283 282 280 279 278 278 277 275 274 273 272 270
287 286 286 287 286 285 287 287 288 288 288 287 287 286 286 287 288 289 289 288 287 286 287 287 288 288 288 286 286 286 283 283 282 280 279 277 275 276 274 272 271 275 274
287 286 286 287 287 286 287 288 287 289 289 287 287 287 286 286 287 289 288 286 286 286 286 286 285 285 283 283 284 282 282 281 280 278 278 278 273 276 276 275 276 269 268
286 286 286 286 286 286 286 285 289 289 289 290 290 289 287 289 289 289 289 288 288 288 285 284 283 283 282 283 281 280 280 280 280 279 279 278 277 277 277 271 267 266 268
286 286 286 285 286 285 285 285 284 287 289 289 289 289 289 288 289 289 288 288 288 288 285 284 283 283 283 282 281 281 280 280 280 279 278 276 278 278 277 270 269 268 268
286 286 286 286 286 286 286 286 286 285 285 285 288 288 288 288 288 288 288 288 285 286 285 284 283 283 282 281 280 280 279 277 279 279 278 277 276 276 275 276 275 274 275
286 286 286 286 286 286 286 285 286 285 285 285 285 287 287 288 288 288 288 285 285 285 284 284 283 283 281 281 280 279 279 280 280 279 278 278 277 275 273 272 274 275 273
286 286 286 286 285 285 285 285 285 285 284 284 285 285 285 286 285 285 286 285 285 285 284 284 283 282 280 280 279 279 279 279 278 279 277 276 276 276 274 274 272 269 270
286 285 286 285 285 285 285 285 285 284 284 284 285 285 286 285 284 285 285 285 285 284 283 282 281 280 280 280 279 279 278 278 278 278 277 277 276 275 274 272 269 267 264
286 285 285 285 285 285 285 285 285 284 284 284 284 285 287 285 285 285 285 284 285 285 284 282 281 281 281 280 280 279 278 277 277 277 277 277 276 276 275 272 267 266 266
285 285 285 285 285 285 285 285 284 284 283 284 284 284 285 285 284 284 284 284 284 283 283 282 281 280 281 281 281 280 278 278 278 278 276 275 274 273 272 271 271 270 273
285 285 285 285 285 285 285 284 284 284 284 284 283 284 284 284 284 284 285 284 284 283 283 282 281 280 280 280 280 280 280 279 278 277 276 274 273 272 272 271 272 274 273
285 285 285 285 285 285 284 284 284 284 284 284 283 284 284 284 284 284 284 283 283 282 282 282 281 280 279 279 279 278 278 278 277 277 275 274 273 273 274 275 271 267 261
285 285 285 285 285 285 284 284 284 284 284 284 284 284 284 284 284 284 283 282 281 281 281 281 280 279 278 278 278 278 277 276 276 275 276 274 274 271 270 268 264 257 257
Wind_Speed
17 17 19 18 18 17 16 16 15 15 16 17 18 18 18 18 16 15 13 13 14 13 11 11 11 7 7 5 4 3 4 4 6 1 2 2 2 3 3 3 4 4 3
14 16 16 16 17 17 17 16 15 16 15 17 17 18 18 17 18 18 16 15 16 15 14 13 12 8 9 8 6 6 5 4 5 6 2 3 2 3 3 2 2 3 2
11 13 14 16 17 17 17 16 16 15 15 16 17 19 18 18 18 17 16 15 16 17 16 15 14 13 11 8 8 7 5 4 4 5 4 2 2 2 2 1 1 2 2
10 12 14 16 18 17 16 16 16 15 15 16 17 17 16 16 16 16 16 14 14 13 14 15 14 15 14 12 10 10 7 7 5 7 3 4 2 2 3 3 2 2 2
8 10 13 12 15 15 14 14 14 15 15 15 15 15 15 15 13 17 15 16 14 12 12 12 13 14 17 15 10 11 11 8 8 8 6 3 2 4 4 3 3 2 2
7 10 9 10 13 14 13 13 14 14 15 14 16 16 15 12 18 23 20 16 15 15 13 12 10 11 14 17 16 19 17 15 11 8 5 8 5 4 3 5 4 3 2
8 7 9 10 12 13 12 13 15 14 13 16 16 16 16 16 21 25 24 15 15 15 14 12 10 9 12 12 16 18 17 18 16 11 11 8 6 7 7 6 4 3 3
8 8 8 10 10 8 11 13 13 13 14 14 15 15 14 13 21 24 22 14 13 14 14 14 13 12 13 14 14 12 10 10 11 5 7 7 4 8 7 4 5 5 3
10 10 10 10 10 10 13 13 11 11 11 13 13 15 14 13 20 23 21 12 9 9 11 13 12 13 17 21 14 13 11 6 8 12 13 14 17 16 9 8 4 5 1
12 12 10 10 11 12 12 11 10 9 8 8 9 13 12 12 21 26 23 10 13 9 5 7 14 14 22 24 16 16 14 10 11 11 10 13 12 10 12 4 5 6 3
8 8 8 9 11 11 9 5 7 8 7 8 9 7 10 12 16 26 22 12 11 11 11 9 6 18 22 23 20 14 15 14 16 11 8 7 6 5 4 4 4 3 3
8 8 8 8 7 7 10 6 8 10 10 9 9 6 5 8 17 24 24 19 19 14 13 11 11 22 23 22 17 19 25 18 9 9 9 7 7 5 3 3 4 4 3
7 7 6 6 7 8 9 9 8 9 9 9 9 8 7 7 10 22 20 19 20 11 9 14 21 25 23 18 20 24 21 10 10 10 9 7 4 5 5 4 4 5 3
9 7 7 9 7 6 6 8 9 9 9 9 9 9 9 9 10 11 10 12 15 11 17 13 18 18 16 12 14 16 9 9 10 9 7 5 4 5 3 3 3 3 2
8 8 7 7 9 8 7 8 8 8 11 11 10 10 13 12 12 16 16 12 11 14 14 12 12 11 11 11 10 9 8 8 9 7 8 7 4 5 4 2 2 2 3
9 7 7 7 7 7 7 5 5 8 10 11 12 11 7 11 20 22 22 22 23 28 13 13 13 12 12 12 11 10 9 10 8 9 8 8 8 7 7 2 2 3 3
10 9 7 8 7 8 8 8 8 6 12 12 14 14 15 17 24 24 24 24 29 24 9 12 12 13 12 11 11 10 11 9 9 8 8 8 8 7 8 3 3 3 3
9 12 8 8 8 8 8 8 7 9 9 8 14 13 16 23 25 25 26 24 16 11 10 12 12 12 11 11 10 9 9 8 9 9 9 8 8 8 7 8 6 4 5
8 8 8 7 7 8 8 8 8 8 8 8 8 10 15 22 23 25 29 12 14 11 11 11 11 11 10 10 10 9 10 10 10 9 8 8 8 7 7 5 7 9 7
7 10 9 8 8 8 8 8 8 8 8 8 8 9 10 13 13 13 12 9 10 10 10 11 10 10 10 10 10 9 9 10 10 9 9 9 8 8 7 8 7 5 6
6 7 10 8 8 8 8 9 9 9 8 8 8 9 16 11 10 10 10 7 8 7 8 8 8 9 10 11 11 11 11 10 10 10 9 9 9 9 7 5 6 5 4
6 7 7 8 8 9 9 8 9 10 10 10 9 11 23 8 8 8 8 6 6 6 7 8 8 9 9 11 12 12 12 12 11 11 10 10 9 9 8 7 5 4 4
7 8 7 7 7 9 9 9 9 9 9 9 10 11 12 9 9 9 9 8 8 8 8 8 8 8 9 10 11 12 13 13 13 12 11 11 10 9 9 7 7 6 7
7 8 8 7 7 8 9 9 8 11 11 11 10 10 11 10 10 10 9 8 8 8 9 9 10 12 11 10 10 10 10 9 10 12 14 11 11 10 8 7 7 9 8
7 7 8 8 8 8 8 8 9 9 9 9 10 11 10 10 10 10 9 9 9 10 10 10 9 12 15 16 14 14 13 17 14 14 11 11 12 13 10 7 5 3 3
7 7 7 7 7 8 8 8 8 9 10 9 9 9 9 10 10 10 10 10 9 9 10 9 10 15 16 14 15 16 16 17 15 16 12 10 10 7 7 7 8 4 5
Wind_Direction
197 197 202 203 205 207 212 211 202 198 194 190 186 189 191 188 186 184 189 184 186 180 181 184 190 168 182 176 165 154 160 133 128 86 123 99 101 92 48 61 66 72 32
192 195 201 203 201 207 210 209 204 200 196 191 184 189 192 191 183 188 185 188 186 186 182 180 187 181 181 178 168 174 161 154 128 146 127 116 154 135 130 108 101 81 59
180 190 197 204 201 207 210 207 205 196 193 193 187 190 191 191 184 189 190 191 197 187 180 182 180 179 188 180 172 163 150 143 122 143 125 148 155 159 133 133 146 57 66
184 187 196 202 205 207 206 206 204 198 190 191 194 191 190 189 187 188 186 193 196 197 185 181 181 182 185 178 173 161 148 136 119 130 111 139 155 161 107 135 107 36 48
182 188 201 201 209 206 204 204 202 197 195 191 191 190 186 189 187 184 183 180 188 189 192 182 184 180 180 180 166 164 156 145 146 147 153 161 171 146 161 172 125 144 61
203 198 184 187 199 204 194 194 195 197 196 186 189 185 185 191 186 182 180 180 180 183 183 183 180 171 173 170 168 165 167 156 161 169 175 174 160 152 146 144 138 138 154
205 201 181 181 196 205 189 190 197 194 189 190 187 189 190 193 184 184 181 181 175 183 178 176 173 174 166 166 156 162 165 165 175 167 179 176 154 168 147 147 139 130 141
209 198 192 181 186 192 200 197 199 194 188 186 187 188 190 195 188 185 176 180 181 180 173 173 174 165 165 154 153 154 156 165 177 182 169 151 134 148 144 137 125 107 81
209 206 201 190 182 182 200 197 195 188 186 186 185 186 189 193 183 180 170 167 161 169 161 155 160 163 161 153 152 152 142 167 154 152 133 141 143 137 146 120 134 129 136
208 207 195 187 186 190 190 192 183 184 183 179 182 189 184 183 180 174 174 163 152 140 118 138 158 162 164 159 159 157 156 167 145 129 130 134 126 142 150 123 144 164 126
194 179 180 185 186 187 168 154 165 163 146 168 178 177 172 175 172 175 166 167 160 154 155 153 166 167 169 165 163 165 163 150 145 134 134 123 124 127 122 124 141 145 138
168 179 186 174 171 162 161 153 153 157 166 170 162 152 159 167 175 178 171 166 167 161 168 164 161 173 170 165 155 156 149 142 143 144 147 148 156 147 130 123 111 99 82
169 181 166 149 150 157 159 159 160 167 172 171 169 171 165 162 175 173 169 159 160 150 149 162 158 164 161 159 157 151 146 154 152 160 161 161 158 128 112 103 76 79 79
163 159 151 152 140 144 152 166 169 174 174 174 174 172 165 168 169 168 162 155 144 134 141 144 154 155 153 148 148 152 157 165 163 162 153 126 109 125 127 149 132 144 130
156 152 157 151 154 154 168 173 175 184 179 177 183 176 172 178 182 173 163 158 155 148 139 143 149 154 152 156 158 157 156 156 160 143 149 152 125 143 158 163 128 130 144
155 162 162 157 154 156 155 135 158 164 172 175 180 181 182 168 164 165 159 154 150 149 147 159 160 164 166 166 162 162 165 171 168 154 155 159 159 168 173 159 121 129 161
161 163 158 158 162 162 163 163 156 152 158 166 168 174 171 160 160 158 157 155 154 151 159 166 167 172 171 169 171 174 176 171 160 153 155 161 160 172 167 159 152 153 164
164 165 167 167 167 165 167 165 159 165 168 164 162 161 161 162 162 159 153 146 161 172 166 171 170 171 172 169 166 168 160 151 163 156 159 162 163 163 173 181 178 173 190
169 170 165 165 165 164 160 158 156 158 160 151 142 148 158 163 162 160 160 167 173 175 174 173 172 172 169 166 164 159 161 165 164 162 159 164 164 164 178 175 184 193 196
173 170 164 160 156 158 159 158 152 154 155 155 156 154 153 156 169 171 176 174 181 180 179 177 171 165 160 160 157 155 155 161 165 171 163 163 169 179 182 184 183 184 196
169 165 163 158 164 163 162 165 158 154 159 159 156 155 165 169 172 179 181 183 182 173 164 159 157 159 163 162 163 168 169 169 175 173 167 169 173 184 184 186 181 189 166
162 164 167 170 163 163 165 166 166 161 161 156 151 160 164 165 171 177 185 175 170 164 156 157 164 170 174 174 171 170 170 172 172 172 170 173 179 189 192 189 177 179 171
161 164 166 168 172 164 164 163 167 161 161 163 161 167 172 173 175 179 175 167 165 163 162 163 165 167 171 174 176 176 178 181 178 170 172 176 182 186 185 190 190 189 208
164 166 169 168 167 171 171 167 172 171 170 166 169 175 178 174 178 183 180 174 170 169 169 170 173 174 175 177 177 179 180 173 169 174 169 176 179 178 182 185 190 206 212
166 169 170 170 172 169 167 173 168 171 174 177 176 176 176 176 181 180 183 173 171 167 173 177 177 178 177 178 180 178 174 169 170 169 173 174 178 179 184 193 176 152 151
168 172 171 169 171 173 174 172 175 176 177 183 186 184 183 180 185 175 171 171 174 175 171 178 180 177 180 185 182 177 169 167 167 172 172 170 171 163 157 173 166 153 155